Regional Weather Roundup
Issued by NWS Memphis, TN

Home | Current Version | Previous Version | Text Only | Print | Product List | Glossary On
Versions: 1 2 3 4 5 6 7 8 9 10 11 12 13 14 15 16 17 18 19 20 21 22 23 24 25 26 27 28 29 30 31 32 33 34 35 36 37 38 39 40 41 42 43 44 45 46 47 48 49 50
000
ASUS44 KMEG 050610
RWRMEG
MEMPHIS CWA HOURLY WEATHER ROUNDUP
NATIONAL WEATHER SERVICE MEMPHIS TN
100 AM CDT WED AUG 05 2015

...WEST TENNESSEE...

CITY           SKY/WX    TMP DP  RH WIND       PRES   REMARKS
MEMPHIS INTL   CLOUDY    87  69  54 SE5       29.98F HX  91
6HR MIN TEMP:  86; 6HR MAX TEMP:  92;

NWS MEMPHIS      N/A     80 N/A N/A MISG        N/A
JACKSON        CLOUDY    79  74  84 CALM      29.99F
6HR MIN TEMP:  78; 6HR MAX TEMP:  92;

LEXINGTON      CLEAR     75  75 100 CALM      29.99F
DYERSBURG        N/A    N/A N/A N/A MISG        N/A
UNION CITY     CLEAR     79  77  94 CALM      29.98F
PARIS          CLEAR     75  72  88 E7        30.01F


...EASTERN ARKANSAS...

CITY           SKY/WX    TMP DP  RH WIND       PRES   REMARKS
JONESBORO      CLOUDY    79  76  90 CALM      29.98S
6HR MIN TEMP:  77; 6HR MAX TEMP:  88;

WEST MEMPHIS   CLOUDY    82  74  76 CALM      29.97S
6HR MIN TEMP:  80; 6HR MAX TEMP:  89;

BATESVILLE     CLOUDY    77  73  88 NE3       29.99F
6HR MIN TEMP:  77; 6HR MAX TEMP:  90;

NEWPORT        CLOUDY    82  75  79 N5        29.98F
6HR MIN TEMP:  82; 6HR MAX TEMP:  88;

WALNUT RIDGE   CLOUDY    73  68  83 NW28      29.99F THUNDER
6HR MIN TEMP:  73; 6HR MAX TEMP:  90;

BLYTHEVILLE    CLOUDY    81  77  88 CALM      29.98F
6HR MIN TEMP:  80; 6HR MAX TEMP:  88;

SEARCY         CLOUDY    79  74  84 CALM      29.98F
6HR MIN TEMP:  79; 6HR MAX TEMP:  87;

STUTTGART      CLOUDY    82  72  69 SE5       29.97F
6HR MIN TEMP:  82; 6HR MAX TEMP:  93;

PINE BLUFF     CLOUDY    81  75  82 CALM      29.96F
6HR MIN TEMP:  81; 6HR MAX TEMP:  90;

MONTICELLO     CLOUDY    83  75  77 CALM      29.96F HX  90
6HR MIN TEMP:  82; 6HR MAX TEMP:  92;



...NORTH MISSISSIPPI...

CITY           SKY/WX    TMP DP  RH WIND       PRES   REMARKS
TUPELO         CLEAR     78  74  87 CALM      29.99S
6HR MIN TEMP:  78; 6HR MAX TEMP:  92;

OLIVE BRANCH     N/A     81  73  78 CALM      29.99F
TUNICA         CLOUDY    81  73  78 CALM      29.98F
CLARKSDALE     CLOUDY    79  79 100 CALM      29.98F
CORINTH          N/A     75  73  94 CALM      29.99F FOG
GREENWOOD      PTCLDY    76  70  82 NE5       29.97S
6HR MIN TEMP:  76; 6HR MAX TEMP:  90;

COLUMBUS       CLEAR     77  72  82 E1        29.98F
6HR MIN TEMP:  75; 6HR MAX TEMP:  91; 6HR PCP: TRACE;

STARKVILLE     FAIR      73  70  88 SW5       30.00S
GOLDEN TRIANGL CLEAR     75  66  73 S3        29.99S
6HR MIN TEMP:  75; 6HR MAX TEMP:  97;



...SOUTHEAST MISSOURI...

CITY           SKY/WX    TMP DP  RH WIND       PRES   REMARKS
WEST PLAINS    LGT RAIN  73  63  70 SE9       30.04F
6HR MIN TEMP:  72; 6HR MAX TEMP:  84; 6HR PCP:  0.01;

POPLAR BLUFF   CLOUDY    79  77  94 CALM      29.97F
6HR MIN TEMP:  79; 6HR MAX TEMP:  87;

CAPE GIRARDEAU CLOUDY    78  70  76 CALM      29.98S
6HR MIN TEMP:  77; 6HR MAX TEMP:  85;



...NORTHWEST ALABAMA...

CITY           SKY/WX    TMP DP  RH WIND       PRES   REMARKS
MUSCLE SHOALS  MOCLDY    77  71  82 CALM      30.02F
6HR MIN TEMP:  77; 6HR MAX TEMP:  88;



...MIDDLE TENNESSEE...

CITY           SKY/WX    TMP DP  RH WIND       PRES   REMARKS
NASHVILLE      MOCLDY    80  71  74 CALM      30.02S
6HR MIN TEMP:  80; 6HR MAX TEMP:  91;

CLARKSVILLE    MOCLDY    73  68  84 CALM      30.01F
6HR MIN TEMP:  73; 6HR MAX TEMP:  88;

COLUMBIA       CLEAR     77  77 100 CALM      30.00F


...WESTERN KENTUCKY...

CITY           SKY/WX    TMP DP  RH WIND       PRES   REMARKS
PADUCAH        CLOUDY    77  69  76 S8        29.98F
6HR MIN TEMP:  75; 6HR MAX TEMP:  86;

FORT CAMPBELL  MOCLDY    74  67  77 SE2       30.01F
6HR MIN TEMP:  73; 6HR MAX TEMP:  86;



...CENTRAL ARKANSAS...

CITY           SKY/WX    TMP DP  RH WIND       PRES   REMARKS
LITTLE ROCK    CLOUDY    82  71  69 CALM      29.96F
6HR MIN TEMP:  82; 6HR MAX TEMP:  91; 6HR PCP: TRACE;



SKY/WX REPORTED AS FAIR MEANS FEW OR NO CLOUDS BELOW
12 THOUSAND FEET.




USA.gov is the U.S. government's official web portal to all federal, state and local government web resources and services.